[ hide orbit diagram ]
For accurate long-term ephemerides, please instead use our Horizons system.This orbit viewer was implemented using two-body methods, and hence should not be used for determining accurate long-term trajectories (over several years or decades) or planetary encounter circumstances.
[ revert to old Java-based viewer ]
Orbital Elements at Epoch 2458600.5 (2019-Apr-27.0) TDB
Reference: JPL 33 (heliocentric ecliptic J2000)
Element | Value | Uncertainty (1-sigma) | Units |
e | .1676384326018171 | 3.6185e-08 | |
a | 2.639067199713624 | 1.2293e-08 | au |
q | 2.196658110822765 | 9.7799e-08 | au |
i | 16.14416991417911 | 4.1318e-06 | deg |
node | 63.99009852821223 | 1.4713e-05 | deg |
peri | 295.4149644586939 | 1.9626e-05 | deg |
M | 16.10362655820677 | 1.4914e-05 | deg |
tp | 2458530.452072509680 (2019-Feb-15.95207251) | 6.4766e-05 | TDB |
period | 1565.936331506884 4.29 | 1.0942e-05 2.996e-08 | d yr |
n | .2298944042339038 | 1.6063e-09 | deg/d |
Q | 3.081476288604483 | 1.4354e-08 | au |
|
| | Orbit Determination Parameters
Additional Information
|
[ show covariance matrix ]
Physical Parameter Table
Parameter |
Symbol |
Value |
Units |
Sigma |
Reference |
Notes |
absolute magnitude |
H |
11.6 |
|
n/a |
MPO296153 |
|
diameter |
diameter |
12.763 |
km |
0.084 |
urn:nasa:pds:neowise_diameters_albedos::2.0[mainbelt] (http://adsabs.harvard.edu/abs/2014ApJ...791..121M) |
|
rotation period |
rot_per |
2.928 |
h |
n/a |
LCDB (Rev. 2019-January); Warner et al., 2009 |
Published Reference List: [Ambrosioni, C.; Colazo, C.; Mazzone, F. (2011) Minor Planet Bull. 38, 102.] [Mazzone, F. (2011) www.aoacm.com.ar/index.php?option=com_content&view=category&layout= blog&id=73&Itemid=91] [Fauerbach, M. (2019) Minor Planet Bull. 46, 3-4.] |
geometric albedo |
albedo |
0.254 |
|
0.021 |
urn:nasa:pds:neowise_diameters_albedos::2.0[mainbelt] (http://adsabs.harvard.edu/abs/2014ApJ...791..121M) |
|
|
2699 Kalinin (1976 YX) Discovered 1976-Dec-16 by Chernykh, L. at Nauchnyj |
Reference: DISCOVERY.DB | Last Updated: 2003-08-29 |
|
Alternate Designations
1976 YX = 1950 UH = 1978 EY6 = 1980 VB |
|
|